Terug naar catalogus

STARLINK-32759

ActiefCommunicatieVLEO
NORAD 62751·PAYLOAD·🇺🇸 United States

Gelanceerd Jan 21, 2025 vanaf Cape Canaveral Space Force Station

Loading…

Volgende Passages (komende 24 uur)

TLE

VersSource: CelesTrak SupGP

Epoch: Sep 14, 2026, 22:22 UTC

1 62751C 25014S   26257.93243056 -.00056114  00000+0 -20323-2 0  2574
2 62751  42.9992 169.3678 0001192 266.0911 200.0905 15.27608864    10

Volg STARLINK-32759 in realtime met AllMySat

Download on the App Store